GW4345 Weather Reports


time (UTC)temp
C
wind
direction
speed
KPH
gust
KPH
rain 1hr
cm
rain 24hr
cm
rain mn
cm
humidity
%
barometer
mb
20260506094505 12 75 3.2 14.5 0.00 0.00 0.00 60 1014.6
20260506094013 12 55 9.7 22.5 0.00 0.00 0.00 60 1014.7
20260506093506 12 42 9.7 19.3 0.00 0.00 0.00 60 1014.5
20260506092506 12 32 12.9 25.7 0.00 0.00 0.00 59 1014.5
20260506092013 12 35 8.0 25.7 0.00 0.00 0.00 61 1014.5
20260506091506 12 25 11.3 32.2 0.00 0.00 0.00 59 1014.4
20260506091013 12 55 4.8 19.3 0.00 0.00 0.00 62 1014.4
20260506090506 12 70 9.7 22.5 0.00 0.00 0.00 62 1014.3
20260506090006 12 73 8.0 20.9 0.00 0.00 0.00 63 1014.3
20260506085521 12 40 6.4 16.1 0.00 0.00 0.00 63 1014.3
20260506085013 12 66 8.0 20.9 0.00 0.00 0.00 62 1014.1
20260506084506 12 77 4.8 20.9 0.00 0.00 0.00 62 1014.3
20260506084012 12 65 11.3 22.5 0.00 0.00 0.00 61 1014.2
20260506083506 12 40 4.8 20.9 0.00 0.00 0.00 62 1014.1
20260506083013 12 55 8.0 19.3 0.00 0.00 0.00 64 1014.0
20260506081505 11 43 8.0 14.5 0.00 0.00 0.00 66 1014.1
20260506080506 11 44 4.8 25.7 0.00 0.00 0.00 68 1014.1
20260506073506 10 29 9.7 20.9 0.00 0.00 0.00 69 1014.1
20260506072506 10 51 9.7 19.3 0.00 0.00 0.00 70 1014.1
20260506071506 10 39 9.7 24.1 0.00 0.00 0.00 71 1014.1
20260506071013 10 40 6.4 19.3 0.00 0.00 0.00 72 1014.1
20260506070506 10 60 6.4 25.7 0.00 0.00 0.00 72 1013.9
20260506062505 8 43 8.0 19.3 0.00 0.00 0.00 77 1013.9
20260506062012 8 64 8.0 19.3 0.00 0.00 0.00 77 1014.0
20260506061505 8 49 6.4 16.1 0.00 0.00 0.00 78 1014.0
20260506061012 8 50 8.0 19.3 0.00 0.00 0.00 78 1014.0
20260506060506 8 48 4.8 16.1 0.00 0.00 0.00 78 1014.0
20260506051012 7 35 9.7 19.3 0.00 0.00 0.00 78 1013.8
20260506050505 7 45 9.7 22.5 0.00 0.00 0.00 78 1013.8
20260506045013 7 43 6.4 19.3 0.00 0.00 0.00 78 1013.7
20260506044012 7 32 8.0 19.3 0.00 0.00 0.00 78 1013.6
20260506043506 7 64 6.4 14.5 0.00 0.00 0.00 78 1013.6
20260506043013 7 49 8.0 19.3 0.00 0.00 0.00 78 1013.6
20260506042505 8 55 4.8 19.3 0.00 0.00 0.00 78 1013.7
20260506042012 8 39 6.4 19.3 0.00 0.00 0.00 78 1013.7
20260506041505 8 47 8.0 19.3 0.00 0.00 0.00 78 1013.8
20260506040505 8 25 4.8 11.3 0.00 0.00 0.00 78 1013.6
20260506040005 8 35 8.0 19.3 0.00 0.00 0.00 78 1013.6
20260506035505 8 44 3.2 14.5 0.00 0.00 0.00 78 1013.6
20260506035013 8 22 6.4 12.9 0.00 0.00 0.00 78 1013.6
20260506034505 8 46 4.8 14.5 0.00 0.00 0.00 78 1013.7
20260506034012 8 45 3.2 14.5 0.00 0.00 0.00 78 1013.6
20260506032506 8 47 8.0 19.3 0.00 0.00 0.00 78 1013.7
20260506032012 8 38 9.7 19.3 0.00 0.00 0.00 77 1013.6
20260506031505 8 40 6.4 16.1 0.00 0.00 0.00 77 1013.7
20260506031012 8 37 4.8 14.5 0.00 0.00 0.00 77 1013.7
20260506030505 8 31 3.2 11.3 0.00 0.00 0.00 76 1013.7
20260506030005 8 48 8.0 19.3 0.00 0.00 0.00 76 1013.6
20260506025012 8 42 8.0 16.1 0.00 0.00 0.00 76 1013.7
20260506024505 8 48 4.8 14.5 0.00 0.00 0.00 76 1013.7
20260506024012 8 42 8.0 16.1 0.00 0.00 0.00 76 1013.8
20260506023506 8 63 4.8 9.7 0.00 0.00 0.00 76 1013.8
20260506023013 9 47 4.8 11.3 0.00 0.00 0.00 76 1013.9
20260506022505 9 40 4.8 14.5 0.00 0.00 0.00 76 1013.9
20260506022012 9 47 4.8 14.5 0.00 0.00 0.00 76 1014.0
20260506021505 9 54 3.2 14.5 0.00 0.00 0.00 76 1014.0
20260506021012 9 56 4.8 14.5 0.00 0.00 0.00 76 1014.0
20260506020005 9 70 4.8 16.1 0.00 0.00 0.00 76 1014.0
20260506015504 9 65 4.8 12.9 0.00 0.00 0.00 77 1014.0
20260506015012 9 61 3.2 14.5 0.00 0.00 0.00 77 1014.1
20260506014505 9 55 4.8 16.1 0.00 0.00 0.00 77 1014.2
20260506014012 10 37 3.2 19.3 0.00 0.00 0.00 78 1014.1
20260506012505 10 47 4.8 16.1 0.00 0.00 0.00 78 1014.2
20260506012012 10 53 6.4 19.3 0.00 0.00 0.00 78 1014.2
20260506011505 10 60 3.2 8.0 0.00 0.00 0.00 78 1014.2
20260506011012 10 46 4.8 12.9 0.00 0.00 0.00 78 1014.2
20260506010506 10 64 3.2 8.0 0.00 0.00 0.00 78 1014.1
20260506010005 10 60 3.2 14.5 0.00 0.00 0.00 78 1014.1
20260506005505 10 54 4.8 16.1 0.00 0.00 0.00 77 1014.1
20260506005012 10 54 3.2 4.8 0.00 0.00 0.00 77 1014.1
20260506004012 10 67 3.2 8.0 0.00 0.00 0.00 77 1014.2
20260506003505 10 58 3.2 8.0 0.00 0.00 0.00 76 1014.1
20260506002505 10 64 6.4 14.5 0.00 0.00 0.00 75 1014.3
20260506001505 10 66 3.2 9.7 0.00 0.00 0.00 75 1014.3
20260506001012 10 67 4.8 29.0 0.00 0.00 0.00 75 1014.2
20260506000505 10 70 3.2 16.1 0.00 0.00 0.00 75 1014.3
20260505235505 10 72 8.0 19.3 0.00 0.00 0.00 74 1014.2
20260505235012 10 67 4.8 19.3 0.00 0.00 0.00 75 1014.2
20260505234505 10 76 6.4 16.1 0.00 0.00 0.00 74 1014.2
20260505234012 10 36 1.6 12.9 0.00 0.00 0.00 74 1014.2
20260505233505 10 60 4.8 12.9 0.00 0.00 0.00 74 1014.2
20260505233012 10 69 3.2 9.7 0.00 0.00 0.00 74 1014.2
20260505232504 10 63 4.8 16.1 0.00 0.00 0.00 74 1014.3
20260505231505 10 60 8.0 11.3 0.00 0.00 0.00 74 1014.3
20260505231012 11 62 4.8 12.9 0.00 0.00 0.00 74 1014.3
20260505230005 11 62 6.4 19.3 0.00 0.00 0.00 73 1014.3
20260505225505 11 54 4.8 12.9 0.00 0.00 0.00 72 1014.3
20260505225012 11 98 6.4 16.1 0.00 0.00 0.00 72 1014.3
20260505224505 11 51 3.2 8.0 0.00 0.00 0.00 72 1014.3
20260505224012 11 68 4.8 20.9 0.00 0.00 0.00 72 1014.3
20260505223505 11 93 6.4 24.1 0.00 0.00 0.00 72 1014.3
20260505223012 11 54 4.8 14.5 0.00 0.00 0.00 71 1014.3
20260505221012 11 39 3.2 8.0 0.00 0.00 0.00 79 1014.4
20260505220505 11 89 3.2 12.9 0.00 0.00 0.00 78 1014.3
20260505215505 11 104 1.6 9.7 0.00 0.00 0.00 78 1014.3
20260505215012 11 84 4.8 9.7 0.00 0.00 0.00 77 1014.2
20260505214504 11 102 1.6 12.9 0.00 0.00 0.00 77 1014.2
20260505214011 11 124 8.0 14.5 0.00 0.00 0.00 76 1014.1
20260505213505 11 115 6.4 19.3 0.00 0.00 0.00 75 1014.1
20260505213011 11 106 8.0 19.3 0.00 0.00 0.00 75 1014.0
20260505212505 11 115 11.3 20.9 0.00 0.00 0.00 74 1013.9
20260505211505 12 96 14.5 25.7 0.00 0.00 0.00 74 1013.9
20260505211012 12 106 14.5 22.5 0.00 0.00 0.00 75 1013.9
20260505210505 12 106 9.7 27.4 0.00 0.00 0.00 75 1013.9
20260505205504 12 92 19.3 29.0 0.00 0.00 0.00 72 1013.9
20260505205012 12 90 9.7 25.7 0.00 0.00 0.00 70 1013.9
20260505204012 12 91 12.9 22.5 0.00 0.00 0.00 65 1013.8
20260505203011 13 98 6.4 16.1 0.00 0.00 0.00 66 1013.7
20260505202504 13 114 6.4 19.3 0.00 0.00 0.00 66 1013.6
20260505202012 13 99 6.4 19.3 0.00 0.00 0.00 67 1013.7
20260505201505 13 98 9.7 16.1 0.00 0.00 0.00 67 1013.6
20260505201012 13 101 6.4 11.3 0.00 0.00 0.00 68 1013.6
20260505200505 13 112 6.4 12.9 0.00 0.00 0.00 67 1013.5
20260505200005 13 89 4.8 11.3 0.00 0.00 0.00 67 1013.4
20260505195011 13 97 4.8 9.7 0.00 0.00 0.00 66 1013.3
20260505194505 13 113 4.8 11.3 0.00 0.00 0.00 66 1013.3
20260505194012 13 71 3.2 12.9 0.00 0.00 0.00 66 1013.2
20260505193505 13 99 6.4 16.1 0.00 0.00 0.00 65 1013.1
20260505193012 13 90 8.0 14.5 0.00 0.00 0.00 65 1013.0
20260505192505 13 109 6.4 16.1 0.00 0.00 0.00 65 1013.0
20260505192011 13 118 8.0 19.3 0.00 0.00 0.00 65 1013.0
20260505191504 13 92 9.7 22.5 0.00 0.00 0.00 64 1013.0
20260505190005 14 97 0.0 3.2 0.00 0.00 0.00 64 1012.9
20260505185011 14 132 3.2 4.8 0.00 0.00 0.00 62 1012.8
20260505184505 14 104 3.2 4.8 0.00 0.00 0.00 62 1012.8
20260505184011 14 122 3.2 4.8 0.00 0.00 0.00 62 1012.7
20260505183505 14 134 3.2 4.8 0.00 0.00 0.00 62 1012.7
20260505183011 14 104 3.2 4.8 0.00 0.00 0.00 62 1012.6
20260505182504 14 111 0.0 4.8 0.00 0.00 0.00 62 1012.6
20260505182012 15 103 4.8 9.7 0.00 0.00 0.00 60 1012.6
20260505181505 15 171 3.2 4.8 0.00 0.00 0.00 60 1012.6
20260505181011 15 151 3.2 8.0 0.00 0.00 0.00 60 1012.6
20260505180004 15 94 3.2 4.8 0.00 0.00 0.00 60 1012.7
20260505175505 15 121 3.2 4.8 0.00 0.00 0.00 60 1012.7
20260505174504 15 152 4.8 9.7 0.00 0.00 0.00 59 1012.7
20260505174011 15 131 4.8 8.0 0.00 0.00 0.00 58 1012.6
20260505173011 15 121 4.8 11.3 0.00 0.00 0.00 57 1012.6
20260505172507 15 126 4.8 9.7 0.00 0.00 0.00 57 1012.6
20260505172011 15 160 1.6 9.7 0.00 0.00 0.00 56 1012.7
20260505171505 15 142 8.0 14.5 0.00 0.00 0.00 56 1012.6
20260505171011 15 134 6.4 12.9 0.00 0.00 0.00 56 1012.6
20260505170505 15 133 4.8 12.9 0.00 0.00 0.00 56 1012.7
20260505170004 15 137 4.8 14.5 0.00 0.00 0.00 55 1012.7
20260505165504 15 129 6.4 11.3 0.00 0.00 0.00 55 1012.7
20260505165011 15 135 8.0 14.5 0.00 0.00 0.00 55 1012.7
20260505164011 15 142 4.8 16.1 0.00 0.00 0.00 54 1012.7
20260505163505 15 187 8.0 19.3 0.00 0.00 0.00 54 1012.6
20260505163012 15 154 4.8 12.9 0.00 0.00 0.00 54 1012.7
20260505162504 16 158 4.8 11.3 0.00 0.00 0.00 54 1012.7
20260505162011 16 134 6.4 12.9 0.00 0.00 0.00 53 1012.6
20260505161505 16 103 9.7 16.1 0.00 0.00 0.00 52 1012.6
20260505161012 16 106 8.0 14.5 0.00 0.00 0.00 52 1012.6
20260505160505 16 103 4.8 11.3 0.00 0.00 0.00 53 1012.6
20260505152504 16 87 3.2 4.8 0.00 0.00 0.00 53 1012.7
20260505152011 16 107 3.2 9.7 0.00 0.00 0.00 52 1012.7
20260505151504 16 105 3.2 4.8 0.00 0.00 0.00 52 1012.7
20260505151011 16 136 6.4 11.3 0.00 0.00 0.00 51 1012.8
20260505150504 16 130 1.6 4.8 0.00 0.00 0.00 51 1012.8
20260505140504 17 24 1.6 4.8 0.00 0.00 0.00 50 1013.0
20260505124506 16 116 3.2 4.8 0.00 0.00 0.00 53 1013.4
20260505124013 16 86 8.0 14.5 0.00 0.00 0.00 52 1013.4
20260505123509 16 81 3.2 8.0 0.00 0.00 0.00 54 1013.4
20260505123012 16 138 3.2 8.0 0.00 0.00 0.00 54 1013.4
20260505122506 16 54 4.8 14.5 0.00 0.00 0.00 54 1013.4
20260505122013 17 89 8.0 19.3 0.00 0.00 0.00 52 1013.3
20260505121505 17 99 6.4 14.5 0.00 0.00 0.00 52 1013.3
20260505120506 17 63 8.0 19.3 0.00 0.00 0.00 53 1013.3
20260505120006 17 106 4.8 12.9 0.00 0.00 0.00 51 1013.4
20260505115506 16 132 3.2 14.5 0.00 0.00 0.00 53 1013.5
20260505115013 16 88 12.9 19.3 0.00 0.00 0.00 52 1013.5
20260505114505 16 124 4.8 11.3 0.00 0.00 0.00 54 1013.5
20260505114012 16 74 6.4 16.1 0.00 0.00 0.00 57 1013.5
20260505113506 16 60 4.8 16.1 0.00 0.00 0.00 57 1013.5
20260505113013 16 112 11.3 19.3 0.00 0.00 0.00 56 1013.5
20260505112506 16 82 3.2 11.3 0.00 0.00 0.00 57 1013.5
20260505111506 16 131 9.7 19.3 0.00 0.00 0.00 56 1013.7
20260505111012 16 54 3.2 9.7 0.00 0.00 0.00 58 1013.6
20260505110506 16 33 4.8 19.3 0.00 0.00 0.00 58 1013.6
20260505102013 15 83 8.0 19.3 0.00 0.00 0.00 60 1014.1
20260505101506 15 93 4.8 14.5 0.00 0.00 0.00 63 1014.1
20260505101013 15 94 1.6 8.0 0.00 0.00 0.00 63 1014.1
20260505100506 15 78 4.8 12.9 0.00 0.00 0.00 63 1014.1
20260505100006 15 41 4.8 14.5 0.00 0.00 0.00 63 1014.1
20260505095505 14 68 8.0 11.3 0.00 0.00 0.00 63 1014.1
20260505095012 14 54 4.8 14.5 0.00 0.00 0.00 63 1014.2